SCP
1 1 1 1 1 1 1 1 1 1 0 0 0 0 0 0 0 0 0 0 0 0 0 0 0 0 0 0 0 0 0 0 0 0 0 0 0 0 0 0 0 0 0
1 1 1 1 1 1 1 1 1 0 0 0 0 0 0 0 0 0 0 0 0 0 0 0 0 0 0 0 0 0 0 0 0 0 0 0 0 0 0 0 0 0 0
1 1 1 1 1 1 0 0 0 0 0 0 0 0 0 0 0 0 0 0 0 0 0 0 0 0 0 0 0 0 0 0 0 0 0 0 0 0 0 0 0 0 0
0 0 0 0 0 0 0 0 0 0 0 0 0 0 0 0 0 0 0 0 0 0 0 0 0 0 0 0 0 0 0 0 0 0 0 0 0 0 0 0 0 0 0
0 0 0 0 0 0 0 0 0 0 0 0 0 0 0 0 0 0 0 0 0 0 0 0 0 0 0 0 0 0 0 0 0 0 0 0 0 0 0 0 0 0 0
0 0 0 0 0 0 0 0 0 0 0 0 0 0 0 0 0 0 0 0 0 0 0 0 0 0 0 0 0 0 0 0 0 0 0 0 0 0 0 0 0 0 0
0 0 0 0 0 0 0 0 0 0 0 0 0 0 0 0 0 0 0 0 0 0 0 0 0 0 0 0 0 0 0 0 0 0 0 0 0 0 0 0 0 0 0
0 0 0 0 0 0 0 0 0 0 0 0 0 0 0 0 0 0 0 0 0 0 0 0 0 0 0 0 0 0 0 0 0 0 0 0 0 0 0 0 0 0 0
0 0 0 0 0 0 0 0 0 0 0 0 0 0 0 0 0 0 0 0 0 0 0 0 0 0 0 0 0 0 0 0 0 0 0 0 0 0 0 0 0 0 0
0 0 0 0 0 0 0 0 0 0 0 0 0 0 0 0 0 0 0 0 0 0 0 0 0 0 0 0 0 0 0 0 0 0 0 0 0 0 0 0 0 0 0
0 0 0 0 0 0 0 0 0 0 0 0 0 0 0 0 0 0 0 0 0 0 0 0 0 0 0 0 0 0 0 0 0 0 0 0 0 0 0 0 0 0 0
0 0 0 0 0 0 0 0 0 0 0 0 0 0 0 0 0 0 0 0 0 0 0 0 0 0 0 0 0 0 0 0 0 0 0 0 0 0 0 0 0 0 0
0 0 0 0 0 0 0 0 0 0 0 0 0 0 0 0 0 0 0 0 0 -0 -0 0 0 0 -0 0 0 0 0 0 0 0 0 0 0 0 0 0 0 0 0
0 0 0 0 0 0 0 0 0 0 0 0 0 0 0 0 0 0 0 0 0 -0 -0 0 0 0 0 0 0 0 0 0 0 0 0 0 0 0 0 0 0 0 0
0 0 0 0 0 0 0 0 0 0 0 0 0 0 0 0 0 0 0 0 0 0 -0 0 0 0 0 0 0 0 0 0 0 0 0 0 0 0 0 0 0 0 0
0 0 0 0 0 0 0 0 0 0 0 0 0 0 0 0 0 0 0 0 0 0 0 0 0 0 0 0 -0 0 0 0 0 0 0 0 0 0 0 0 0 0 0
0 0 0 0 0 0 0 0 0 0 0 0 0 0 0 0 0 0 0 0 0 0 0 0 0 0 0 0 -0 -0 0 0 0 0 0 0 0 0 0 0 0 0 0
0 0 0 0 0 0 0 0 0 0 0 0 0 0 0 0 0 0 0 0 0 0 0 0 0 0 0 0 -0 -0 -0 0 0 0 0 0 0 0 0 0 0 0 0
0 0 0 0 0 0 0 0 0 0 0 0 0 0 0 0 0 0 0 0 0 0 -0 0 0 0 0 0 0 0 0 0 0 0 0 0 0 0 0 0 0 0 0
0 0 0 0 0 0 0 0 0 0 0 0 0 0 0 0 0 0 0 0 0 0 0 0 0 0 0 0 0 0 0 0 0 0 0 0 0 0 0 0 0 0 0
0 0 0 0 0 0 0 0 0 0 0 0 0 0 0 0 0 0 0 0 0 0 0 0 0 0 0 0 0 0 0 0 -0 -0 -0 0 0 0 0 0 0 0 0
0 0 0 0 0 0 0 0 0 0 0 0 0 0 0 0 0 0 0 0 0 0 0 0 0 0 0 0 0 0 0 0 -0 -0 -0 0 0 0 0 0 0 0 0
0 0 0 0 0 0 0 0 0 0 0 0 0 0 0 0 0 0 0 0 0 0 0 0 0 0 0 0 0 0 0 0 0 0 0 0 0 0 0 0 0 0 0
0 0 0 0 0 0 0 0 0 0 0 0 0 0 0 0 0 0 0 0 0 0 0 0 0 0 0 0 0 0 0 0 0 0 0 0 0 0 0 -0 0 0 0
0 0 0 0 0 0 0 0 0 0 0 0 0 0 0 0 0 0 0 -0 0 0 0 0 0 0 0 0 0 0 0 0 0 0 0 0 0 0 -0 -0 0 0 0
0 0 0 0 0 0 0 0 0 0 0 0 0 0 0 0 0 0 0 0 0 0 0 0 0 0 0 0 0 0 0 0 0 0 0 0 0 0 0 0 0 0 0
Wind_Speed
8 8 8 7 7 6 6 5 5 3 2 3 4 3 2 2 2 2 3 3 1 1 1 1 2 3 3 3 5 5 6 5 5 6 6 6 7 7 5 4 5 6 6
8 8 9 9 8 7 5 5 4 2 2 2 2 2 3 3 3 3 4 5 4 3 2 2 2 2 3 3 4 4 4 3 3 4 5 4 3 5 5 4 4 5 5
8 8 9 9 8 8 6 5 4 3 3 3 4 4 4 3 3 4 4 5 5 5 4 4 3 3 3 3 3 4 5 4 2 2 4 5 5 3 3 4 4 4 4
8 8 8 8 8 8 7 7 7 6 5 4 5 5 4 4 4 3 4 5 6 6 6 5 5 4 3 4 4 4 4 5 4 2 2 3 5 6 4 2 2 3 4
7 8 8 8 8 8 7 6 7 7 7 6 6 7 7 6 5 5 7 6 6 7 7 7 6 6 5 6 6 6 5 4 4 3 2 4 4 4 5 4 2 2 2
7 8 8 7 7 8 7 7 7 8 7 7 7 8 8 8 8 7 6 5 5 6 8 8 7 7 6 7 7 7 8 6 7 5 4 3 3 3 4 5 4 3 1
7 8 8 8 8 8 8 7 8 9 8 8 8 8 8 8 8 7 6 6 5 5 7 7 7 7 7 8 8 8 8 7 8 7 5 5 3 2 3 5 4 3 2
8 8 7 7 7 8 8 7 8 8 8 8 8 8 8 6 6 7 6 6 5 5 6 7 8 8 8 8 8 8 8 7 8 9 7 6 5 4 3 4 5 5 2
8 8 7 7 7 7 7 7 7 8 8 8 8 8 8 7 8 7 7 6 5 5 7 7 8 8 8 8 8 8 7 7 7 7 7 6 5 5 4 4 4 5 4
8 7 7 6 7 7 7 7 8 8 7 7 7 8 8 8 7 7 8 7 7 6 7 7 8 8 8 8 8 7 7 8 6 6 8 7 5 5 5 4 3 4 5
8 7 6 6 6 7 7 7 7 8 8 8 7 8 8 8 8 8 8 7 7 7 7 7 7 8 8 7 7 7 7 8 7 7 8 7 6 6 5 5 5 4 4
8 7 6 6 6 6 6 7 7 7 7 7 7 8 8 8 8 8 7 7 7 7 7 7 8 8 8 7 7 8 8 8 8 7 8 7 7 7 6 5 6 4 3
9 8 6 6 6 6 6 6 6 6 6 6 7 7 7 7 7 7 7 7 7 7 7 8 8 8 7 7 7 7 7 7 6 6 7 6 7 7 5 6 5 4 4
9 8 6 6 6 5 5 6 5 5 6 6 6 6 6 6 6 6 6 6 6 7 8 8 8 8 8 7 7 7 7 6 6 6 6 5 6 5 5 5 4 4 4
10 9 7 6 6 5 5 5 5 4 5 5 5 5 4 5 6 6 6 6 7 8 7 7 7 7 7 7 7 6 6 6 6 5 5 4 6 6 4 3 3 3 3
11 9 9 8 7 6 6 5 5 4 4 5 4 4 5 5 5 5 6 6 6 6 7 7 7 7 6 8 10 7 5 5 5 4 4 4 6 7 7 6 4 3 3
11 10 9 8 6 6 6 6 5 4 4 4 4 4 4 5 4 6 6 5 5 6 6 6 6 6 6 9 9 8 5 4 4 4 3 4 5 6 5 6 7 5 3
11 9 8 8 6 5 5 5 4 4 4 4 4 4 5 5 5 5 5 4 4 5 4 5 5 5 6 9 9 8 6 5 4 4 4 4 4 5 5 5 5 5 4
9 8 8 7 6 6 5 5 4 4 5 5 5 4 5 5 5 5 4 3 3 4 3 3 4 5 5 8 9 8 5 5 5 4 3 3 3 6 7 5 5 5 5
9 8 8 7 6 5 5 5 5 5 5 4 4 4 5 5 5 4 3 2 3 3 3 3 3 4 4 7 9 7 4 4 3 3 3 4 3 5 5 3 3 4 4
10 9 8 7 6 6 6 5 5 4 4 5 5 5 4 4 4 3 2 3 3 4 4 4 3 3 4 6 8 8 4 3 2 2 2 3 5 6 5 2 0 2 4
9 9 8 6 5 6 7 6 5 4 4 5 5 4 3 3 3 3 3 3 4 4 3 3 3 3 4 5 7 9 6 4 2 1 2 4 7 7 7 4 4 5 4
8 7 8 7 5 6 7 6 4 4 5 4 4 3 4 4 3 3 3 3 3 3 2 2 2 2 3 4 9 9 9 7 3 2 5 7 7 6 5 6 7 5 3
8 7 8 8 6 5 6 5 5 5 5 4 3 3 4 4 4 4 3 3 3 3 3 3 2 1 2 3 3 4 4 6 5 4 6 7 7 5 5 5 4 3 1
7 7 8 7 6 5 5 4 5 5 5 4 3 3 4 4 4 4 3 3 1 2 4 3 3 3 1 1 1 1 2 2 3 3 3 4 4 4 4 4 4 3 3
7 8 7 7 6 6 5 4 5 5 5 3 3 3 3 3 3 4 3 5 3 4 5 5 4 2 2 1 2 3 4 5 3 3 3 3 2 2 2 3 3 3 3
Wind_Direction
77 66 62 61 62 57 61 66 71 75 110 128 128 132 118 104 85 59 53 54 52 97 112 112 131 141 137 146 142 136 128 123 127 109 93 63 56 64 64 74 86 88 87
82 65 57 53 49 43 46 56 54 56 86 125 129 124 117 90 77 55 49 38 36 50 77 76 85 98 104 111 125 133 131 128 137 132 125 118 72 49 50 64 84 87 83
84 66 56 48 44 37 35 47 39 48 64 105 114 111 97 89 71 53 49 36 38 47 61 70 74 76 94 108 118 132 137 138 103 106 141 150 152 124 41 43 65 79 82
79 67 58 50 44 36 33 45 38 42 44 69 107 110 106 100 83 75 65 50 43 45 51 62 69 73 82 97 100 99 116 127 127 85 57 103 133 141 130 66 55 76 87
79 70 59 54 49 40 36 42 48 45 42 53 81 96 98 99 93 83 72 59 47 46 49 55 64 66 68 75 75 83 89 94 108 108 95 78 75 93 129 138 127 78 61
79 71 61 53 50 47 42 44 54 52 50 58 69 90 104 105 99 87 78 64 52 44 44 56 61 64 64 65 69 72 78 80 85 81 76 94 106 117 118 131 138 130 94
82 70 58 51 45 45 43 44 55 57 56 64 69 78 88 92 92 90 82 75 62 53 41 50 57 59 63 64 66 69 69 70 78 78 73 69 69 94 107 121 128 119 95
80 73 64 59 53 49 45 45 54 60 58 66 68 70 77 83 83 83 83 76 69 60 54 57 60 61 63 66 67 69 67 68 71 71 67 65 55 63 92 123 133 120 79
90 80 68 60 56 55 50 49 55 62 61 66 75 73 73 79 84 81 77 74 70 69 63 64 65 63 63 66 71 73 70 70 69 69 67 64 53 55 63 83 121 133 128
98 89 78 69 63 60 56 54 58 63 59 61 73 81 75 75 77 79 76 72 66 63 63 63 66 65 64 65 70 72 70 72 65 68 67 61 53 54 53 64 72 97 126
112 102 90 81 74 68 64 62 60 62 62 62 68 75 74 73 72 73 72 71 68 64 62 61 62 64 64 65 71 71 70 70 63 61 66 60 56 57 49 55 65 69 94
118 112 103 94 84 75 70 66 65 67 65 66 70 73 72 72 71 68 67 69 68 65 65 63 60 63 62 62 69 75 71 73 71 65 64 56 61 54 48 54 58 61 73
124 118 112 105 98 91 84 79 76 76 71 70 70 72 70 70 69 67 65 70 73 70 67 67 63 60 59 60 64 72 73 73 72 71 71 64 64 57 51 56 54 52 60
131 128 120 114 111 106 101 96 88 83 83 75 74 75 75 77 78 74 70 71 74 72 69 67 63 60 57 54 57 66 68 66 64 67 71 68 71 70 62 58 52 59 59
142 140 135 127 123 118 113 109 105 97 93 85 80 78 77 77 78 76 72 71 74 78 74 70 61 56 54 49 56 60 67 66 63 61 62 66 70 69 65 70 63 71 71
149 144 138 136 134 132 128 118 115 110 104 96 93 87 83 82 82 82 79 78 74 73 74 70 67 58 53 53 61 68 66 67 72 73 62 58 45 38 39 42 58 106 115
148 144 142 140 137 137 130 124 125 121 113 108 106 99 94 93 91 94 84 82 79 80 77 74 73 63 43 48 53 61 73 70 73 79 71 57 39 32 26 25 35 38 56
147 145 142 139 134 128 124 122 121 121 120 116 113 109 102 95 88 85 83 82 81 85 85 80 77 65 39 41 50 64 67 66 68 79 87 76 34 21 31 43 39 28 18
141 138 138 134 131 129 127 119 115 108 106 107 110 110 106 102 96 93 90 87 88 84 88 91 84 68 33 36 53 68 67 69 62 62 71 74 48 26 45 52 34 15 354
132 132 130 126 130 135 128 115 112 109 114 120 118 114 114 112 110 108 94 82 94 98 96 85 78 75 47 38 56 72 76 74 58 35 28 34 34 27 44 52 38 13 334
134 133 131 132 140 138 124 118 115 117 123 114 107 103 107 114 114 99 86 94 93 89 86 81 63 57 48 39 53 70 81 87 70 30 354 333 346 358 10 28 24 297 306
134 135 133 132 132 126 119 115 116 119 106 100 98 96 101 110 106 95 83 88 98 95 93 81 52 27 26 35 44 58 69 90 76 6 319 308 326 338 345 348 326 341 5
136 133 132 125 120 122 123 126 134 123 106 95 93 91 87 74 81 93 97 85 88 100 110 107 87 30 18 21 36 46 51 55 54 329 321 329 336 342 343 343 348 360 24
134 131 129 128 128 130 131 138 138 123 114 111 102 94 88 74 66 69 84 94 97 106 114 123 123 83 31 18 15 19 22 21 14 351 341 355 15 25 5 354 3 18 30
130 130 133 136 138 135 136 140 135 124 119 119 111 98 97 101 86 69 64 89 81 160 146 154 154 144 133 292 52 56 14 354 341 346 5 17 16 14 8 5 7 12 19
129 131 134 138 139 138 138 139 136 129 126 122 124 122 122 118 115 106 66 42 68 81 109 141 145 151 175 195 20 12 359 353 5 50 30 9 9 9 3 3 356 356 354